#timestamp,LO_Frequency,Hit,StdDev 
1507143615.5,286046996.5,N
1507143635.3,286046997.3,N
1507143655.2,286046993.6,N
1507143675.9,286046992.6,N
1507143695.7,286046990.9,N
1507143715.6,286046990.6,N
1507143735.4,286046994.0,N
1507143755.2,286046993.3,N
1507143775.1,286046994.7,N
1507143776.0,286046994.7,N
1507143795.8,286046990.6,N
1507143815.6,286046994.6,N
1507143835.5,286046993.9,N
1507143855.3,286046992.7,N
1507143875.1,286046993.2,N
1507143895.8,286046990.2,N
1507143915.7,286046990.3,N
1507143935.5,286046990.8,N
1507143955.3,286046992.2,N
1507143975.2,286046990.3,N
1507143995.9,286046990.6,N
1507144015.7,286046988.8,N
1507144035.6,286046989.3,N
1507144055.4,286046986.9,Y
1507144075.2,286046994.1,P
1507144095.1,286046997.7,P
1507144096.0,286046997.7,N
1507144115.8,286046996.3,N
1507144135.6,286046995.4,N
1507144155.5,286046997.2,N
1507144175.3,286046995.2,Y
1507144195.1,286047001.2,P
1507144215.9,286046999.5,N
1507144235.7,286046998.9,N
1507144255.5,286046998.2,N
1507144275.4,286046998.1,N
1507144295.2,286047001.8,N
1507144315.0,286047001.8,N
1507144315.9,286047001.8,N
1507144335.8,286046999.9,N
1507144355.6,286047000.5,N
1507144375.4,286046998.9,N
1507144395.2,286046998.8,N
1507144415.1,286046998.5,N
1507144416.0,286046998.5,N
1507144435.8,286046999.8,N
1507144455.6,286047001.9,N
1507144475.5,286047004.3,N
1507144495.3,286047003.0,N
1507144515.1,286047007.9,Y
1507144535.9,286047009.6,P
1507144555.7,286047006.3,N
1507144575.5,286047004.6,N
1507144595.4,286047006.5,N
1507144615.2,286047005.0,N
1507144635.0,286047005.8,N
1507144635.9,286047005.8,N
1507144655.8,286047003.7,N
1507144675.6,286047005.4,N
1507144695.4,286047004.9,N
1507144715.3,286047003.8,N
1507144735.1,286047003.9,N
1507144736.0,286047003.9,N
1507144755.8,286047001.4,N
1507144775.6,286047003.1,N
1507144795.5,286046999.8,N
1507144815.3,286047000.4,N
1507144835.1,286046998.7,N
1507144855.9,286047000.1,N
1507144875.7,286046999.9,N
1507144895.5,286047000.4,N
1507144915.4,286046996.5,N
1507144935.2,286047002.8,N
1507144955.0,286047003.0,N
1507144955.9,286047003.0,N
1507144975.8,286047010.0,Y
1507144995.6,286047010.3,P
1507145015.4,286047010.8,N
1507145035.3,286047012.0,P
1507145055.1,286047012.0,Y
1507145075.8,286047007.1,P
1507145095.7,286047004.5,P
1507145115.5,286047006.9,P
1507145135.3,286047009.1,Y
1507145155.2,286047004.0,P
1507145175.9,286047006.0,P
1507145195.7,286047005.8,P
1507145215.6,286047003.8,Y
1507145235.4,286046995.7,P
1507145255.2,286047000.8,N
1507145275.1,286046994.8,N
1507145276.0,286046994.8,N
1507145295.8,286046994.7,N
1507145315.6,286046990.7,N
1507145335.5,286046989.3,N
1507145355.3,286046989.9,N
1507145375.1,286046987.1,N
1507145395.9,286046985.3,N
1507145415.7,286046984.6,N
1507145435.5,286046982.8,N
1507145455.3,286046982.4,N
1507145475.2,286046982.0,N
1507145495.0,286046986.8,N
1507145495.9,286046986.8,N
1507145515.7,286046984.4,N
1507145535.6,286046985.7,N
1507145555.4,286046984.2,N
1507145575.2,286046985.8,N
1507145595.1,286046986.6,N
1507145596.0,286046986.6,N
1507145615.8,286046987.5,N
1507145635.6,286046987.9,N
1507145655.5,286046987.8,N
1507145675.3,286046987.4,N
1507145695.1,286046983.8,N
1507145715.9,286046984.5,N
1507145735.7,286046984.7,N
1507145755.5,286046987.8,N
1507145775.4,286046981.2,Y
1507145795.2,286046993.0,P
1507145815.0,286046992.0,P
1507145815.9,286046992.0,P
1507145835.8,286046988.9,Y
1507145855.6,286046998.9,P
1507145875.4,286047000.9,N
1507145895.3,286046998.6,N
1507145915.1,286046997.6,N
1507145916.0,286046997.6,N
1507145935.8,286046996.5,N
1507145955.7,286046999.3,N
1507145975.5,286047002.0,N
1507145995.3,286047004.3,N
1507146015.1,286047003.6,N
1507146035.9,286047003.6,N
1507146055.7,286046999.9,N
1507146075.5,286046996.9,N
1507146095.4,286047000.9,N
1507146115.2,286047000.7,N
1507146135.0,286046999.0,N
1507146135.9,286046999.0,N
1507146155.8,286046997.1,N
1507146175.6,286046993.8,N
1507146195.4,286046991.7,N
1507146215.3,286046991.9,N
1507146235.1,286046991.9,N
1507146236.0,286046991.9,N
1507146255.8,286046993.5,N
1507146275.7,286046995.0,N
1507146295.5,286046996.9,N
1507146315.3,286046994.7,N
1507146335.2,286046993.5,N
1507146355.9,286046996.9,N
1507146375.7,286046999.2,N
1507146395.5,286046997.5,N
1507146415.4,286046996.8,N
1507146435.2,286046997.1,N
1507146455.0,286046998.3,N
1507146455.9,286046998.3,N
1507146475.8,286047002.7,N
1507146495.6,286047001.8,N
1507146515.4,286047002.8,N
1507146535.3,286047001.3,N
1507146555.1,286047003.9,N
1507146575.8,286047001.3,N
1507146595.7,286047000.4,N
1507146615.5,286047002.5,N
1507146635.3,286046999.8,N
1507146655.2,286047001.0,N
1507146675.9,286047000.2,N
1507146695.7,286046999.8,N
1507146715.5,286047003.6,N
1507146735.4,286047004.1,N
1507146755.2,286046998.1,N
1507146775.0,286046998.4,N
1507146775.9,286046998.4,N
1507146795.8,286046999.6,N
1507146815.6,286046998.3,N
1507146835.4,286046998.2,N
1507146855.3,286047001.2,N
1507146875.1,286046998.1,N
1507146895.8,286046998.8,N
1507146915.7,286046995.5,N
1507146935.5,286046993.9,N
1507146955.3,286046994.5,N
1507146975.2,286046994.2,N
1507146995.9,286046995.5,N
1507147015.7,286046997.7,N
1507147035.5,286046998.6,N
1507147055.4,286046997.4,N
1507147075.2,286046994.9,N
1507147095.0,286047002.2,N
1507147095.9,286047002.2,N
1507147115.8,286047005.8,N
1507147135.6,286047003.5,N
1507147155.4,286047009.2,Y
1507147175.3,286047007.4,P
1507147195.1,286047008.1,N
